[[{"header":{"parameterUnit":"m.s-1","parameterCategory":1,"la1":30.2991,"la2":30.254,"lo1":-89.0895,"lo2":-89.0444,"dy":0.0017,"dx":0.0017,"nx":28,"ny":28,"refTime":"2024-05-30T03:00:00:Z","depth":0,"parameterNumber":2,"parameterNumberName":"U-component_of_WINDS"},"data":[0,0,0,0,0,0,0,0,0,0,0,0,0,0,0,0,0,0,0,0,0,0,0,0,0,0,0,0,0,0,0,0,0,0,0,0,0,0,0,0,0,0,0,0,0,0,0,0,0,0,0,0,0,0,0,0,0,0,-2.5534,-2.5534,0,-2.5525,-2.5524,-2.5524,-2.5444,-2.5442,-2.544,-2.5438,-2.5432,-2.5433,-2.5435,0,0,0,0,0,0,0,0,0,0,0,0,0,-2.5484,-2.5485,-2.5534,-2.5534,-2.5534,-2.5525,-2.5524,-2.5524,-2.5445,-2.5442,-2.544,-2.5437,-2.5431,-2.5433,-2.5435,0,0,0,0,0,0,0,0,0,0,0,0,0,-2.5493,-2.5485,-2.5534,-2.5493,-2.5489,-2.5525,-2.5524,-2.5524,-2.5445,-2.5442,-2.5439,-2.5436,-2.543,-2.5433,-2.5435,-2.5511,0,0,-2.5443,-2.5444,0,0,0,0,0,0,0,0,-2.5493,-2.5495,-2.5499,-2.5496,-2.5491,-2.5482,-2.5504,-2.552,-2.5446,-2.5462,-2.5438,-2.5435,-2.5451,-2.5452,-2.5457,-2.551,-2.551,-2.5443,-2.5445,-2.5446,-2.5446,0,0,0,0,0,0,0,-2.5492,-2.5495,-2.553,-2.5499,-2.5494,-2.5475,-2.5473,-2.5507,-2.5473,-2.546,-2.5454,-2.5454,-2.5448,-2.5454,-2.5456,-2.551,-2.5443,-2.5445,-2.5447,-2.5448,-2.5623,-2.5626,0,0,0,0,0,0,-2.5497,-2.5495,-2.553,-2.553,-2.5485,-2.5478,-2.5476,-2.5488,-2.5473,-2.5467,-2.5457,-2.5451,-2.5452,-2.5453,-2.5455,-2.5541,-2.5446,-2.5448,-2.545,-2.5619,-2.5623,-2.5627,0,0,0,0,0,0,-2.5496,-2.5501,-2.5531,-2.5511,-2.5513,-2.5482,-2.5497,-2.549,-2.5495,-2.547,-2.5464,-2.5469,-2.5449,-2.5452,-2.5497,-2.554,-2.5449,-2.5451,-2.5616,-2.5621,-2.5625,-2.5714,0,0,0,0,0,0,-2.5495,-2.5501,-2.5529,-2.5512,-2.5514,-2.5573,-2.5499,-2.5492,-2.55,-2.5491,-2.548,-2.5475,-2.5447,-2.5493,-2.5499,-2.5541,-2.5453,-2.5612,-2.5618,-2.5623,-2.5707,-2.5721,-2.5733,0,0,0,0,0,-2.5494,-2.5556,-2.5531,-2.5536,-2.5549,-2.5575,-2.5577,-2.5542,-2.5504,-2.5532,-2.5515,-2.5475,-2.5534,-2.5499,-2.5505,-2.5548,-2.5609,-2.5616,-2.5623,-2.5701,-2.5718,-2.5733,0,0,0,0,0,0,-2.5581,-2.5553,-2.5525,-2.5584,-2.5582,-2.5562,-2.5596,-2.5562,-2.5572,-2.5564,-2.5522,-2.552,-2.5571,-2.5564,-2.5525,-2.5619,-2.5564,-2.5573,-2.5622,-2.5638,-2.5651,-2.5651,-2.5456,0,0,0,0,0,-2.5606,-2.5629,-2.5604,-2.5658,-2.5658,-2.5628,-2.5638,-2.5611,-2.5608,-2.5608,-2.5594,-2.5594,-2.5611,-2.5624,-2.564,-2.5706,-2.5701,-2.5738,-2.5751,-2.5762,-2.577,-2.5803,-2.5819,-2.565,-2.565,-2.565,0,0,-2.566,-2.5648,-2.5665,-2.5675,-2.5671,-2.5695,-2.5628,-2.5657,-2.5675,-2.5612,-2.5653,-2.5644,-2.564,-2.5695,-2.5719,-2.5691,-2.5816,-2.5771,-2.578,-2.5782,-2.5812,-2.5828,-2.5842,-2.5655,-2.5654,-2.5653,0,0,-2.5771,-2.5764,-2.5807,-2.5804,-2.5798,-2.5776,-2.5787,-2.5771,-2.5761,-2.5802,-2.5754,-2.5775,-2.5808,-2.5806,-2.581,-2.5918,-2.5881,-2.5924,-2.5992,-2.6025,-2.6038,-2.605,-2.6087,-2.6101,-2.5932,-2.5932,-2.5933,0,-2.5839,-2.5874,-2.5834,-2.5866,-2.5871,-2.5814,-2.5857,-2.5856,-2.5856,-2.5861,-2.5829,-2.5867,-2.5861,-2.5914,-2.594,-2.5946,-2.5956,-2.5925,-2.6039,-2.605,-2.6061,-2.6096,-2.611,-2.5937,-2.5937,-2.5936,-2.5936,0,-2.5957,-2.5982,-2.6018,-2.6017,-2.6026,-2.6064,-2.603,-2.6044,-2.6017,-2.5999,-2.604,-2.603,-2.6041,-2.6052,-2.6026,-2.6101,-2.6084,-2.6046,-2.599,-2.6082,-2.6115,-2.6128,-2.5945,-2.5943,-2.5941,-2.594,0,0,-2.6124,-2.6099,-2.6112,-2.611,-2.6098,-2.6117,-2.6151,-2.6161,-2.6174,-2.6175,-2.6203,-2.623,-2.6195,-2.6199,-2.6172,-2.6201,-2.6285,-2.6159,-2.6159,-2.6182,-2.6366,-2.6393,-2.641,-2.6261,-2.6263,-2.6265,-2.6366,0,-2.6229,-2.6286,-2.625,-2.6313,-2.6334,-2.6279,-2.6309,-2.6305,-2.6289,-2.6305,-2.6287,-2.6307,-2.6259,-2.6261,-2.6287,-2.6269,-2.6321,-2.6262,-2.6286,-2.6287,-2.6288,-2.6427,-2.6456,-2.6552,-2.6378,-2.638,-2.6382,0,-2.636,-2.6365,-2.6429,-2.641,-2.6418,-2.6446,-2.645,-2.6467,-2.6461,-2.6447,-2.645,-2.6416,-2.6448,-2.6393,-2.6437,-2.6397,-2.6404,-2.6397,-2.64,-2.6401,-2.634,-2.643,-2.6582,-2.6596,-2.6402,-2.64,-2.6399,0,-2.6474,-2.6496,-2.6537,-2.6537,-2.6517,-2.6537,-2.653,-2.652,-2.6528,-2.6533,-2.6537,-2.6546,-2.6551,-2.6559,-2.6527,-2.649,-2.6575,-2.6517,-2.6564,-2.6565,-2.6584,-2.6583,-2.6738,-2.659,-2.659,-2.659,-2.659,0,-2.6595,-2.6636,-2.6587,-2.6612,-2.6656,-2.6615,-2.666,-2.6647,-2.6639,-2.666,-2.6614,-2.6635,-2.6592,-2.6609,-2.6585,-2.6624,-2.6627,-2.6616,-2.6609,-2.662,-2.6621,-2.6624,-2.6617,-2.6594,-2.6593,-2.6592,-2.6591,0,-2.6729,-2.6698,-2.6739,-2.6715,-2.671,-2.6744,-2.6724,-2.6746,-2.6726,-2.6753,-2.6758,-2.6726,-2.6744,-2.6713,-2.6727,-2.671,-2.6764,-2.6748,-2.6766,-2.6761,-2.6809,-2.6804,-2.697,-2.6989,-2.6831,-2.6832,-2.6834,0,-2.6808,-2.6838,-2.6817,-2.6827,-2.6822,-2.684,-2.6846,-2.6807,-2.6816,-2.681,-2.6832,-2.6845,-2.6854,-2.6884,-2.6862,-2.6872,-2.6855,-2.6912,-2.6856,-2.6865,-2.6854,-2.6853,-2.6855,-2.6924,-2.6926,-2.6927,-2.6929,0,-2.6952,-2.6934,-2.6945,-2.695,-2.6959,-2.6961,-2.6961,-2.6972,-2.693,-2.6942,-2.6958,-2.6965,-2.6977,-2.6991,-2.6995,-2.6988,-2.6951,-2.6946,-2.6957,-2.6968,-2.6977,-2.6972,-2.6797,-2.6943,-2.6941,-2.694,-2.694,-2.6939,-2.706,-2.7083,-2.7071,-2.7084,-2.7079,-2.7079,-2.7098,-2.7079,-2.7091,-2.7098,-2.7074,-2.7095,-2.7087,-2.7088,-2.7085,-2.7101,-2.7075,-2.7092,-2.7096,-2.71,-2.7107,-2.6975,-2.7102,-2.7101,-2.7101,-2.7101,-2.71,0,-2.72,-2.7189,-2.7201,-2.72,-2.721,-2.7174,-2.717,-2.7181,-2.72,-2.7195,-2.7203,-2.7221,-2.7233,-2.7212,-2.722,-2.7237,-2.7221,-2.7241,-2.7239,-2.7238,-2.713,-2.7119,-2.7254,-2.7254,-2.7254,-2.7254,-2.7254,-2.7254,-2.7274,-2.731,-2.7291,-2.7324,-2.7313,-2.7332,-2.7333,-2.7333,-2.7328,-2.7349,-2.7358,-2.7344,-2.7332,-2.7339,-2.7348,-2.7342,-2.7347,-2.7373,-2.736,-2.726,-2.7245,-2.7231,-2.722,-2.7374,-2.7374,-2.7466,-2.7467,-2.7467]},{"header":{"parameterUnit":"m.s-1","parameterCategory":1,"la1":30.2991,"la2":30.254,"lo1":-89.0895,"lo2":-89.0444,"dy":0.0017,"dx":0.0017,"nx":28,"ny":28,"refTime":"2024-05-30T03:00:00:Z","depth":0,"parameterNumber":3,"parameterNumberName":"V-component_of_WINDS"},"data":[0,0,0,0,0,0,0,0,0,0,0,0,0,0,0,0,0,0,0,0,0,0,0,0,0,0,0,0,0,0,0,0,0,0,0,0,0,0,0,0,0,0,0,0,0,0,0,0,0,0,0,0,0,0,0,0,0,0,-3.0018,-3.0018,0,-2.9998,-2.9998,-2.9998,-2.995,-2.9949,-2.9948,-2.9947,-2.9925,-2.9925,-2.9926,0,0,0,0,0,0,0,0,0,0,0,0,0,-3.0015,-3.0015,-3.0019,-3.0018,-3.0018,-2.9998,-2.9998,-2.9997,-2.995,-2.9949,-2.9948,-2.9946,-2.9925,-2.9925,-2.9926,0,0,0,0,0,0,0,0,0,0,0,0,0,-3.0008,-3.0015,-3.0019,-2.9992,-2.9989,-2.9998,-2.9998,-2.9997,-2.995,-2.9949,-2.9947,-2.9946,-2.9925,-2.9925,-2.9926,-2.9959,0,0,-2.9927,-2.9928,0,0,0,0,0,0,0,0,-3.0008,-3.0008,-2.9996,-2.9994,-2.9991,-2.9975,-2.9988,-2.9984,-2.9951,-2.9965,-2.9947,-2.9945,-2.9943,-2.9942,-2.9941,-2.9958,-2.9957,-2.9928,-2.9928,-2.9928,-2.9928,0,0,0,0,0,0,0,-3.0009,-3.0008,-3.001,-2.9996,-2.9993,-2.998,-2.9978,-2.9987,-2.9962,-2.9964,-2.996,-2.9958,-2.9941,-2.9941,-2.994,-2.9956,-2.9927,-2.9928,-2.9928,-2.9928,-2.9996,-2.9998,0,0,0,0,0,0,-3.0013,-3.0009,-3.0011,-3.001,-2.9996,-2.9982,-2.9979,-2.9982,-2.9962,-2.9958,-2.996,-2.9956,-2.9941,-2.994,-2.9939,-2.9974,-2.9928,-2.9929,-2.9929,-2.9995,-2.9996,-2.9998,0,0,0,0,0,0,-3.0013,-3.0014,-3.0012,-3.0008,-3.0007,-2.9983,-2.9987,-2.9982,-2.9981,-2.9959,-2.9954,-2.9964,-2.9939,-2.9939,-2.9954,-2.9973,-2.9929,-2.9929,-2.9993,-2.9995,-2.9997,-3.0046,0,0,0,0,0,0,-3.0013,-3.0014,-3.0027,-3.0009,-3.0008,-3.0027,-2.9988,-2.9983,-2.9983,-2.9978,-2.9962,-2.9958,-2.9938,-2.9953,-2.9954,-2.9973,-2.993,-2.9991,-2.9994,-2.9997,-3.0043,-3.005,-3.0056,0,0,0,0,0,-3.0013,-3.0042,-3.0028,-3.0028,-3.0023,-3.0029,-3.0028,-3.0004,-2.9984,-2.9996,-2.9982,-2.9958,-2.9971,-2.9955,-2.9956,-2.9975,-2.999,-2.9993,-2.9996,-3.004,-3.0049,-3.0056,0,0,0,0,0,0,-3.0063,-3.0039,-3.0023,-3.0047,-3.004,-3.002,-3.0035,-3.0015,-3.0013,-3.0009,-2.998,-2.9977,-2.9995,-2.9987,-2.997,-3.0005,-2.9977,-2.998,-3.0009,-3.0017,-3.0024,-3.0025,-2.993,0,0,0,0,0,-3.0076,-3.0083,-3.0062,-3.0085,-3.0082,-3.0059,-3.0061,-3.0044,-3.0035,-3.0032,-3.0019,-3.0011,-3.0013,-3.0015,-3.0016,-3.0042,-3.0037,-3.0055,-3.0062,-3.0068,-3.0071,-3.0081,-3.0089,-3.0009,-3.0009,-3.0009,0,0,-3.0104,-3.0092,-3.0098,-3.0094,-3.0087,-3.0094,-3.0057,-3.0066,-3.0071,-3.0033,-3.0046,-3.0036,-3.0026,-3.0046,-3.0054,-3.0039,-3.0092,-3.0072,-3.0076,-3.0076,-3.0086,-3.0093,-3.01,-3.0011,-3.0011,-3.0011,0,0,-3.0158,-3.0151,-3.0168,-3.0161,-3.0151,-3.0135,-3.0139,-3.0122,-3.0114,-3.0127,-3.0098,-3.0103,-3.0108,-3.0101,-3.0098,-3.0148,-3.0126,-3.0149,-3.0183,-3.0194,-3.0201,-3.0206,-3.0222,-3.0228,-3.0153,-3.0153,-3.0153,0,-3.0195,-3.0204,-3.018,-3.019,-3.0188,-3.0155,-3.0171,-3.0166,-3.0156,-3.0155,-3.0139,-3.0143,-3.0134,-3.015,-3.0162,-3.0162,-3.0165,-3.015,-3.0202,-3.0207,-3.0211,-3.0226,-3.0233,-3.0156,-3.0155,-3.0155,-3.0155,0,-3.0248,-3.0255,-3.027,-3.0261,-3.0261,-3.0274,-3.0251,-3.0254,-3.0237,-3.0222,-3.0235,-3.0222,-3.0219,-3.0222,-3.0206,-3.0236,-3.0227,-3.0207,-3.0178,-3.0222,-3.0236,-3.0241,-3.016,-3.0159,-3.0158,-3.0157,0,0,-3.0332,-3.0308,-3.0314,-3.0309,-3.0294,-3.0298,-3.031,-3.0307,-3.0309,-3.0303,-3.0311,-3.0315,-3.0296,-3.0293,-3.0275,-3.0285,-3.0323,-3.0263,-3.0262,-3.0273,-3.0353,-3.0367,-3.0374,-3.0308,-3.0309,-3.031,-3.0353,0,-3.0381,-3.0399,-3.0377,-3.04,-3.0405,-3.0372,-3.0382,-3.0374,-3.0361,-3.0362,-3.0348,-3.035,-3.0326,-3.0323,-3.0332,-3.0316,-3.0338,-3.0313,-3.0314,-3.0314,-3.0315,-3.0382,-3.0397,-3.0438,-3.0359,-3.036,-3.036,0,-3.0441,-3.0437,-3.046,-3.0442,-3.0444,-3.0453,-3.0447,-3.045,-3.0439,-3.0429,-3.0425,-3.0403,-3.0412,-3.0385,-3.0395,-3.0379,-3.0378,-3.037,-3.0371,-3.0369,-3.0339,-3.0379,-3.0451,-3.0456,-3.0369,-3.0368,-3.0367,0,-3.0497,-3.0499,-3.0512,-3.0508,-3.0489,-3.0495,-3.0487,-3.0475,-3.0474,-3.0469,-3.0468,-3.0464,-3.0462,-3.0459,-3.0437,-3.0419,-3.0449,-3.0421,-3.0439,-3.044,-3.0446,-3.0446,-3.0517,-3.0449,-3.0449,-3.0448,-3.0448,0,-3.0553,-3.0568,-3.0536,-3.0545,-3.056,-3.0534,-3.0549,-3.0538,-3.0527,-3.0532,-3.0504,-3.0509,-3.048,-3.0481,-3.0464,-3.0474,-3.0474,-3.0464,-3.0459,-3.0466,-3.0467,-3.0463,-3.0459,-3.045,-3.045,-3.0449,-3.0449,0,-3.0618,-3.0598,-3.061,-3.059,-3.0585,-3.0597,-3.058,-3.0586,-3.0571,-3.0577,-3.0577,-3.0553,-3.0553,-3.0531,-3.0526,-3.0514,-3.0531,-3.0522,-3.0535,-3.0531,-3.055,-3.0548,-3.062,-3.0627,-3.0557,-3.0557,-3.0558,0,-3.0655,-3.0665,-3.0646,-3.0647,-3.064,-3.0643,-3.0641,-3.0616,-3.0615,-3.0603,-3.061,-3.0608,-3.0604,-3.0605,-3.0587,-3.0583,-3.0572,-3.0598,-3.0571,-3.0577,-3.057,-3.0569,-3.0569,-3.0603,-3.0604,-3.0604,-3.0605,0,-3.072,-3.0709,-3.0708,-3.0704,-3.0703,-3.0698,-3.0691,-3.0694,-3.0666,-3.0666,-3.0666,-3.0663,-3.0658,-3.0655,-3.0648,-3.0638,-3.0616,-3.0614,-3.0617,-3.0623,-3.0629,-3.0624,-3.0548,-3.0612,-3.0611,-3.0611,-3.061,-3.061,-3.077,-3.0777,-3.0765,-3.0764,-3.0756,-3.0751,-3.0755,-3.074,-3.0739,-3.0733,-3.0718,-3.072,-3.0707,-3.0694,-3.0687,-3.0687,-3.0674,-3.068,-3.0681,-3.0682,-3.0685,-3.0631,-3.0686,-3.0685,-3.0685,-3.0685,-3.0685,0,-3.0833,-3.0823,-3.0823,-3.0814,-3.0813,-3.0793,-3.0785,-3.0785,-3.0787,-3.0777,-3.0774,-3.0772,-3.0769,-3.0751,-3.0746,-3.0749,-3.0739,-3.0748,-3.0747,-3.0744,-3.0698,-3.0695,-3.0756,-3.0756,-3.0756,-3.0756,-3.0756,-3.0756,-3.0865,-3.0875,-3.0863,-3.0868,-3.0858,-3.0859,-3.0856,-3.0849,-3.0841,-3.0841,-3.0838,-3.0826,-3.0813,-3.0806,-3.0802,-3.0796,-3.0795,-3.0807,-3.0798,-3.0755,-3.0748,-3.0741,-3.0738,-3.0807,-3.0808,-3.0844,-3.0844,-3.0845]}]]